Location: Bu�n Treun
(12.1333°N, 108.3167°E)
Time: 23:12:34
(UTC+00:00)

Resurs 01 Rocket - Pass Details

Date: 13 July 2020
Orbit: 634 x 644 km, 98.0° (Epoch: 03 August)

Event Time Altitude Azimuth Distance (km) Brightness Sun altitude
Exits shadow 14:08:18 15° 329° (NNW) 1,698 4.4 -37.4°
Drops below altitude 10° 14:09:08 10° 333° (NNW) 2,016 4.8 -37.5°
Sets 14:11:23 0° 339° (NNW) 2,923 5.7 -38.0°
